Year,Month,Day,Hour,Minute,Value (Times are PST for temperature in C)
2007,08,22,00,00,14.20
2007,08,22,00,01,14.20
2007,08,22,00,02,14.20
2007,08,22,00,03,14.20
2007,08,22,00,04,14.20
2007,08,22,00,05,14.20
2007,08,22,00,06,14.20
2007,08,22,00,07,14.20
2007,08,22,00,08,14.30
2007,08,22,00,09,14.30
2007,08,22,00,10,14.30
2007,08,22,00,11,14.40
2007,08,22,00,12,14.50
2007,08,22,00,13,14.50
2007,08,22,00,14,14.60
2007,08,22,00,15,14.60
2007,08,22,00,16,14.70
2007,08,22,00,17,14.70
2007,08,22,00,18,14.70
2007,08,22,00,19,14.70
2007,08,22,00,20,14.70
2007,08,22,00,21,14.70
2007,08,22,00,22,14.70
2007,08,22,00,23,14.70
2007,08,22,00,24,14.70
2007,08,22,00,25,14.70
2007,08,22,00,26,14.70
2007,08,22,00,27,14.70
2007,08,22,00,28,14.70
2007,08,22,00,29,14.70
2007,08,22,00,30,14.70
2007,08,22,00,31,14.70
2007,08,22,00,32,14.70
2007,08,22,00,33,14.70
2007,08,22,00,34,14.70
2007,08,22,00,35,14.80
2007,08,22,00,36,14.80
2007,08,22,00,37,14.80
2007,08,22,00,38,14.80
2007,08,22,00,39,14.80
2007,08,22,00,40,14.70
2007,08,22,00,41,14.70
2007,08,22,00,42,14.70
2007,08,22,00,43,14.70
2007,08,22,00,44,14.60
2007,08,22,00,45,14.60
2007,08,22,00,46,14.60
2007,08,22,00,47,14.50
2007,08,22,00,48,14.50
2007,08,22,00,49,14.50
2007,08,22,00,50,14.50
2007,08,22,00,51,14.50
2007,08,22,00,52,14.50
2007,08,22,00,53,14.40
2007,08,22,00,54,14.40
2007,08,22,00,55,14.40
2007,08,22,00,56,14.40
2007,08,22,00,57,14.40
2007,08,22,00,58,14.40
2007,08,22,00,59,14.40
2007,08,22,01,00,14.40
2007,08,22,01,01,14.40
2007,08,22,01,02,14.40
2007,08,22,01,03,14.40
2007,08,22,01,04,14.40
2007,08,22,01,05,14.30
2007,08,22,01,06,14.30
2007,08,22,01,07,14.30
2007,08,22,01,08,14.20
2007,08,22,01,09,14.20
2007,08,22,01,10,14.20
2007,08,22,01,11,14.20
2007,08,22,01,12,14.20
2007,08,22,01,13,14.20
2007,08,22,01,14,14.20
2007,08,22,01,15,14.20
2007,08,22,01,16,14.20
2007,08,22,01,17,14.20
2007,08,22,01,18,14.20
2007,08,22,01,19,14.20
2007,08,22,01,20,14.20
2007,08,22,01,21,14.20
2007,08,22,01,22,14.20
2007,08,22,01,23,14.10
2007,08,22,01,24,14.10
2007,08,22,01,25,14.10
2007,08,22,01,26,14.10
2007,08,22,01,27,14.10
2007,08,22,01,28,14.00
2007,08,22,01,29,14.00
2007,08,22,01,30,14.00
2007,08,22,01,31,14.00
2007,08,22,01,32,14.00
2007,08,22,01,33,14.00
2007,08,22,01,34,14.00
2007,08,22,01,35,14.00
2007,08,22,01,36,14.00
2007,08,22,01,37,14.00
2007,08,22,01,38,13.90
2007,08,22,01,39,13.90
2007,08,22,01,40,13.90
2007,08,22,01,41,13.90
2007,08,22,01,42,13.90
2007,08,22,01,43,13.90
2007,08,22,01,44,13.90
2007,08,22,01,45,13.90
2007,08,22,01,46,13.90
2007,08,22,01,47,13.90
2007,08,22,01,48,13.90
2007,08,22,01,49,13.90
2007,08,22,01,50,13.90
2007,08,22,01,51,13.90
2007,08,22,01,52,13.90
2007,08,22,01,53,13.90
2007,08,22,01,54,13.90
2007,08,22,01,55,13.90
2007,08,22,01,56,13.90
2007,08,22,01,57,13.90
2007,08,22,01,58,14.00
2007,08,22,01,59,14.00
2007,08,22,02,00,14.00
2007,08,22,02,01,14.00
2007,08,22,02,02,14.00
2007,08,22,02,03,14.00
2007,08,22,02,04,14.00
2007,08,22,02,05,14.00
2007,08,22,02,06,14.00
2007,08,22,02,07,13.90
2007,08,22,02,08,13.90
2007,08,22,02,09,13.90
2007,08,22,02,10,13.90
2007,08,22,02,11,13.90
2007,08,22,02,12,13.90
2007,08,22,02,13,13.90
2007,08,22,02,14,13.90
2007,08,22,02,15,13.90
2007,08,22,02,16,14.00
2007,08,22,02,17,14.00
2007,08,22,02,18,14.00
2007,08,22,02,19,14.00
2007,08,22,02,20,14.00
2007,08,22,02,21,14.00
2007,08,22,02,22,14.00
2007,08,22,02,23,14.00
2007,08,22,02,24,14.10
2007,08,22,02,25,14.10
2007,08,22,02,26,14.10
2007,08,22,02,27,14.10
2007,08,22,02,28,14.10
2007,08,22,02,29,14.10
2007,08,22,02,30,14.10
2007,08,22,02,31,14.10
2007,08,22,02,32,14.20
2007,08,22,02,33,14.20
2007,08,22,02,34,14.20
2007,08,22,02,35,14.20
2007,08,22,02,36,14.20
2007,08,22,02,37,14.20
2007,08,22,02,38,14.20
2007,08,22,02,39,14.20
2007,08,22,02,40,14.20
2007,08,22,02,41,14.20
2007,08,22,02,42,14.20
2007,08,22,02,43,14.20
2007,08,22,02,44,14.20
2007,08,22,02,45,14.20
2007,08,22,02,46,14.20
2007,08,22,02,47,14.20
2007,08,22,02,48,14.20
2007,08,22,02,49,14.20
2007,08,22,02,50,14.20
2007,08,22,02,51,14.20
2007,08,22,02,52,14.20
2007,08,22,02,53,14.20
2007,08,22,02,54,14.20
2007,08,22,02,55,14.20
2007,08,22,02,56,14.30
2007,08,22,02,57,14.30
2007,08,22,02,58,14.30
2007,08,22,02,59,14.20
2007,08,22,03,00,14.20
2007,08,22,03,01,14.20
2007,08,22,03,02,14.20
2007,08,22,03,03,14.20
2007,08,22,03,04,14.20
2007,08,22,03,05,14.20
2007,08,22,03,06,14.20
2007,08,22,03,07,14.20
2007,08,22,03,08,14.20
2007,08,22,03,09,14.20
2007,08,22,03,10,14.20
2007,08,22,03,11,14.20
2007,08,22,03,12,14.20
2007,08,22,03,13,14.20
2007,08,22,03,14,14.20
2007,08,22,03,15,14.20
2007,08,22,03,16,14.20
2007,08,22,03,17,14.20
2007,08,22,03,18,14.20
2007,08,22,03,19,14.20
2007,08,22,03,20,14.20
2007,08,22,03,21,14.20
2007,08,22,03,22,14.20
2007,08,22,03,23,14.20
2007,08,22,03,24,14.20
2007,08,22,03,25,14.20
2007,08,22,03,26,14.20
2007,08,22,03,27,14.20
2007,08,22,03,28,14.20
2007,08,22,03,29,14.20
2007,08,22,03,30,14.20
2007,08,22,03,31,14.20
2007,08,22,03,32,14.20
2007,08,22,03,33,14.20
2007,08,22,03,34,14.20
2007,08,22,03,35,14.20
2007,08,22,03,36,14.20
2007,08,22,03,37,14.20
2007,08,22,03,38,14.20
2007,08,22,03,39,14.20
2007,08,22,03,40,14.20
2007,08,22,03,41,14.20
2007,08,22,03,42,14.20
2007,08,22,03,43,14.20
2007,08,22,03,44,14.20
2007,08,22,03,45,14.20
2007,08,22,03,46,14.20
2007,08,22,03,47,14.20
2007,08,22,03,48,14.20
2007,08,22,03,49,14.20
2007,08,22,03,50,14.20
2007,08,22,03,51,14.20
2007,08,22,03,52,14.20
2007,08,22,03,53,14.20
2007,08,22,03,54,14.20
2007,08,22,03,55,14.20
2007,08,22,03,56,14.30
2007,08,22,03,57,14.30
2007,08,22,03,58,14.30
2007,08,22,03,59,14.30
2007,08,22,04,00,14.30
2007,08,22,04,01,14.30
2007,08,22,04,02,14.30
2007,08,22,04,03,14.30
2007,08,22,04,04,14.30
2007,08,22,04,05,14.30
2007,08,22,04,06,14.30
2007,08,22,04,07,14.30
2007,08,22,04,08,14.30
2007,08,22,04,09,14.30
2007,08,22,04,10,14.30
2007,08,22,04,11,14.30
2007,08,22,04,12,14.30
2007,08,22,04,13,14.30
2007,08,22,04,14,14.30
2007,08,22,04,15,14.30
2007,08,22,04,16,14.30
2007,08,22,04,17,14.30
2007,08,22,04,18,14.30
2007,08,22,04,19,14.30
2007,08,22,04,20,14.30
2007,08,22,04,21,14.40
2007,08,22,04,22,14.40
2007,08,22,04,23,14.40
2007,08,22,04,24,14.40
2007,08,22,04,25,14.40
2007,08,22,04,26,14.40
2007,08,22,04,27,14.40
2007,08,22,04,28,14.40
2007,08,22,04,29,14.40
2007,08,22,04,30,14.40
2007,08,22,04,31,14.40
2007,08,22,04,32,14.40
2007,08,22,04,33,14.40
2007,08,22,04,34,14.40
2007,08,22,04,35,14.40
2007,08,22,04,36,14.40
2007,08,22,04,37,14.40
2007,08,22,04,38,14.40
2007,08,22,04,39,14.40
2007,08,22,04,40,14.40
2007,08,22,04,41,14.40
2007,08,22,04,42,14.40
2007,08,22,04,43,14.40
2007,08,22,04,44,14.50
2007,08,22,04,45,14.50
2007,08,22,04,46,14.50
2007,08,22,04,47,14.50
2007,08,22,04,48,14.50
2007,08,22,04,49,14.50
2007,08,22,04,50,14.50
2007,08,22,04,51,14.50
2007,08,22,04,52,14.50
2007,08,22,04,53,14.50
2007,08,22,04,54,14.50
2007,08,22,04,55,14.50
2007,08,22,04,56,14.50
2007,08,22,04,57,14.50
2007,08,22,04,58,14.50
2007,08,22,04,59,14.50
2007,08,22,05,00,14.50
2007,08,22,05,01,14.50
2007,08,22,05,02,14.50
2007,08,22,05,03,14.50
2007,08,22,05,04,14.50
2007,08,22,05,05,14.50
2007,08,22,05,06,14.50
2007,08,22,05,07,14.50
2007,08,22,05,08,14.50
2007,08,22,05,09,14.50
2007,08,22,05,10,14.50
2007,08,22,05,11,14.50
2007,08,22,05,12,14.50
2007,08,22,05,13,14.50
2007,08,22,05,14,14.50
2007,08,22,05,15,14.50
2007,08,22,05,16,14.50
2007,08,22,05,17,14.50
2007,08,22,05,18,14.50
2007,08,22,05,19,14.50
2007,08,22,05,20,14.50
2007,08,22,05,21,14.50
2007,08,22,05,22,14.50
2007,08,22,05,23,14.50
2007,08,22,05,24,14.50
2007,08,22,05,25,14.50
2007,08,22,05,26,14.50
2007,08,22,05,27,14.60
2007,08,22,05,28,14.60
2007,08,22,05,29,14.60
2007,08,22,05,30,14.60
2007,08,22,05,31,14.60
2007,08,22,05,32,14.60
2007,08,22,05,33,14.60
2007,08,22,05,34,14.60
2007,08,22,05,35,14.60
2007,08,22,05,36,14.60
2007,08,22,05,37,14.60
2007,08,22,05,38,14.60
2007,08,22,05,39,14.60
2007,08,22,05,40,14.60
2007,08,22,05,41,14.60
2007,08,22,05,42,14.60
2007,08,22,05,43,14.60
2007,08,22,05,44,14.60
2007,08,22,05,45,14.60
2007,08,22,05,46,14.60
2007,08,22,05,47,14.60
2007,08,22,05,48,14.60
2007,08,22,05,49,14.60
2007,08,22,05,50,14.60
2007,08,22,05,51,14.60
2007,08,22,05,52,14.60
2007,08,22,05,53,14.60
2007,08,22,05,54,14.60
2007,08,22,05,55,14.60
2007,08,22,05,56,14.60
2007,08,22,05,57,14.60
2007,08,22,05,58,14.60
2007,08,22,05,59,14.60
2007,08,22,06,00,14.60
2007,08,22,06,01,14.60
2007,08,22,06,02,14.60
2007,08,22,06,03,14.60
2007,08,22,06,04,14.60
2007,08,22,06,05,14.60
2007,08,22,06,06,14.60
2007,08,22,06,07,14.60
2007,08,22,06,08,14.60
2007,08,22,06,09,14.60
2007,08,22,06,10,14.60
2007,08,22,06,11,14.60
2007,08,22,06,12,14.60
2007,08,22,06,13,14.60
2007,08,22,06,14,14.60
2007,08,22,06,15,14.60
2007,08,22,06,16,14.60
2007,08,22,06,17,14.70
2007,08,22,06,18,14.70
2007,08,22,06,19,14.70
2007,08,22,06,20,14.70
2007,08,22,06,21,14.70
2007,08,22,06,22,14.70
2007,08,22,06,23,14.70
2007,08,22,06,24,14.70
2007,08,22,06,25,14.70
2007,08,22,06,26,14.70
2007,08,22,06,27,14.70
2007,08,22,06,28,14.70
2007,08,22,06,29,14.70
2007,08,22,06,30,14.70
2007,08,22,06,31,14.70
2007,08,22,06,32,14.70
2007,08,22,06,33,14.80
2007,08,22,06,34,14.80
2007,08,22,06,35,14.80
2007,08,22,06,36,14.80
2007,08,22,06,37,14.80
2007,08,22,06,38,14.80
2007,08,22,06,39,14.80
2007,08,22,06,40,14.80
2007,08,22,06,41,14.80
2007,08,22,06,42,14.80
2007,08,22,06,43,14.80
2007,08,22,06,44,14.80
2007,08,22,06,45,14.80
2007,08,22,06,46,14.80
2007,08,22,06,47,14.80
2007,08,22,06,48,14.80
2007,08,22,06,49,14.80
2007,08,22,06,50,14.80
2007,08,22,06,51,14.80
2007,08,22,06,52,14.80
2007,08,22,06,53,14.80
2007,08,22,06,54,14.80
2007,08,22,06,55,14.80
2007,08,22,06,56,14.80
2007,08,22,06,57,14.80
2007,08,22,06,58,14.80
2007,08,22,06,59,14.80
2007,08,22,07,00,14.80
2007,08,22,07,01,14.80
2007,08,22,07,02,14.80
2007,08,22,07,03,14.80
2007,08,22,07,04,14.80
2007,08,22,07,05,14.80
2007,08,22,07,06,14.80
2007,08,22,07,07,14.80
2007,08,22,07,08,14.90
2007,08,22,07,09,14.90
2007,08,22,07,10,14.90
2007,08,22,07,11,14.90
2007,08,22,07,12,14.90
2007,08,22,07,13,14.90
2007,08,22,07,14,14.90
2007,08,22,07,15,14.90
2007,08,22,07,16,14.90
2007,08,22,07,17,14.90
2007,08,22,07,18,15.00
2007,08,22,07,19,15.00
2007,08,22,07,20,15.00
2007,08,22,07,21,15.00
2007,08,22,07,22,15.00
2007,08,22,07,23,15.00
2007,08,22,07,24,15.00
2007,08,22,07,25,15.00
2007,08,22,07,26,15.00
2007,08,22,07,27,15.00
2007,08,22,07,28,15.00
2007,08,22,07,29,15.00
2007,08,22,07,30,15.00
2007,08,22,07,31,15.00
2007,08,22,07,32,15.00
2007,08,22,07,33,15.10
2007,08,22,07,34,15.10
2007,08,22,07,35,15.10
2007,08,22,07,36,15.10
2007,08,22,07,37,15.10
2007,08,22,07,38,15.10
2007,08,22,07,39,15.10
2007,08,22,07,40,15.10
2007,08,22,07,41,15.10
2007,08,22,07,42,15.20
2007,08,22,07,43,15.20
2007,08,22,07,44,15.20
2007,08,22,07,45,15.20
2007,08,22,07,46,15.20
2007,08,22,07,47,15.20
2007,08,22,07,48,15.20
2007,08,22,07,49,15.20
2007,08,22,07,50,15.20
2007,08,22,07,51,15.20
2007,08,22,07,52,15.20
2007,08,22,07,53,15.20
2007,08,22,07,54,15.20
2007,08,22,07,55,15.20
2007,08,22,07,56,15.20
2007,08,22,07,57,15.20
2007,08,22,07,58,15.20
2007,08,22,07,59,15.30
2007,08,22,08,00,15.30
2007,08,22,08,01,15.30
2007,08,22,08,02,15.30
2007,08,22,08,03,15.30
2007,08,22,08,04,15.30
2007,08,22,08,05,15.30
2007,08,22,08,06,15.30
2007,08,22,08,07,15.30
2007,08,22,08,08,15.30
2007,08,22,08,09,15.30
2007,08,22,08,10,15.30
2007,08,22,08,11,15.40
2007,08,22,08,12,15.40
2007,08,22,08,13,15.40
2007,08,22,08,14,15.40
2007,08,22,08,15,15.50
2007,08,22,08,16,15.50
2007,08,22,08,17,15.50
2007,08,22,08,18,15.50
2007,08,22,08,19,15.50
2007,08,22,08,20,15.50
2007,08,22,08,21,15.50
2007,08,22,08,22,15.50
2007,08,22,08,23,15.50
2007,08,22,08,24,15.50
2007,08,22,08,25,15.50
2007,08,22,08,26,15.50
2007,08,22,08,27,15.50
2007,08,22,08,28,15.50
2007,08,22,08,29,15.50
2007,08,22,08,30,15.50
2007,08,22,08,31,15.60
2007,08,22,08,32,15.60
2007,08,22,08,33,15.60
2007,08,22,08,34,15.60
2007,08,22,08,35,15.60
2007,08,22,08,36,15.60
2007,08,22,08,37,15.60
2007,08,22,08,38,15.60
2007,08,22,08,39,15.60
2007,08,22,08,40,15.60
2007,08,22,08,41,15.60
2007,08,22,08,42,15.70
2007,08,22,08,43,15.70
2007,08,22,08,44,15.70
2007,08,22,08,45,15.70
2007,08,22,08,46,15.70
2007,08,22,08,47,15.70
2007,08,22,08,48,15.70
2007,08,22,08,49,15.70
2007,08,22,08,50,15.80
2007,08,22,08,51,15.80
2007,08,22,08,52,15.80
2007,08,22,08,53,15.80
2007,08,22,08,54,15.80
2007,08,22,08,55,15.80
2007,08,22,08,56,15.90
2007,08,22,08,57,15.90
2007,08,22,08,58,15.90
2007,08,22,08,59,16.00
2007,08,22,09,00,16.10
2007,08,22,09,01,16.10
2007,08,22,09,02,16.10
2007,08,22,09,03,16.10
2007,08,22,09,04,16.10
2007,08,22,09,05,16.10
2007,08,22,09,06,16.10
2007,08,22,09,07,16.20
2007,08,22,09,08,16.20
2007,08,22,09,09,16.20
2007,08,22,09,10,16.20
2007,08,22,09,11,16.30
2007,08,22,09,12,16.30
2007,08,22,09,13,16.30
2007,08,22,09,14,16.40
2007,08,22,09,15,16.40
2007,08,22,09,16,16.40
2007,08,22,09,17,16.40
2007,08,22,09,18,16.50
2007,08,22,09,19,16.60
2007,08,22,09,20,16.60
2007,08,22,09,21,16.60
2007,08,22,09,22,16.70
2007,08,22,09,23,16.70
2007,08,22,09,24,16.70
2007,08,22,09,25,16.70
2007,08,22,09,26,16.80
2007,08,22,09,27,16.90
2007,08,22,09,28,16.90
2007,08,22,09,29,17.00
2007,08,22,09,30,17.00
2007,08,22,09,31,17.00
2007,08,22,09,32,17.00
2007,08,22,09,33,17.10
2007,08,22,09,34,17.10
2007,08,22,09,35,17.20
2007,08,22,09,36,17.30
2007,08,22,09,37,17.30
2007,08,22,09,38,17.30
2007,08,22,09,39,17.40
2007,08,22,09,40,17.40
2007,08,22,09,41,17.50
2007,08,22,09,42,17.60
2007,08,22,09,43,17.70
2007,08,22,09,44,17.80
2007,08,22,09,45,17.90
2007,08,22,09,46,17.90
2007,08,22,09,47,18.00
2007,08,22,09,48,18.10
2007,08,22,09,49,18.10
2007,08,22,09,50,18.20
2007,08,22,09,51,18.20
2007,08,22,09,52,18.20
2007,08,22,09,53,18.20
2007,08,22,09,54,18.30
2007,08,22,09,55,18.30
2007,08,22,09,56,18.30
2007,08,22,09,57,18.30
2007,08,22,09,58,18.30
2007,08,22,09,59,18.20
2007,08,22,10,00,18.20
2007,08,22,10,01,18.30
2007,08,22,10,02,18.30
2007,08,22,10,03,18.20
2007,08,22,10,04,18.20
2007,08,22,10,05,18.20
2007,08,22,10,06,18.20
2007,08,22,10,07,18.20
2007,08,22,10,08,18.20
2007,08,22,10,09,18.20
2007,08,22,10,10,18.20
2007,08,22,10,11,18.20
2007,08,22,10,12,18.20
2007,08,22,10,13,18.20
2007,08,22,10,14,18.20
2007,08,22,10,15,18.20
2007,08,22,10,16,18.20
2007,08,22,10,17,18.20
2007,08,22,10,18,18.20
2007,08,22,10,19,18.20
2007,08,22,10,20,18.20
2007,08,22,10,21,18.20
2007,08,22,10,22,18.20
2007,08,22,10,23,18.20
2007,08,22,10,24,18.20
2007,08,22,10,25,18.20
2007,08,22,10,26,18.20
2007,08,22,10,27,18.20
2007,08,22,10,28,18.10
2007,08,22,10,29,18.10
2007,08,22,10,30,18.20
2007,08,22,10,31,18.20
2007,08,22,10,32,18.20
2007,08,22,10,33,18.20
2007,08,22,10,34,18.30
2007,08,22,10,35,18.30
2007,08,22,10,36,18.30
2007,08,22,10,37,18.30
2007,08,22,10,38,18.30
2007,08,22,10,39,18.30
2007,08,22,10,40,18.20
2007,08,22,10,41,18.20
2007,08,22,10,42,18.30
2007,08,22,10,43,18.30
2007,08,22,10,44,18.30
2007,08,22,10,45,18.30
2007,08,22,10,46,18.30
2007,08,22,10,47,18.40
2007,08,22,10,48,18.40
2007,08,22,10,49,18.40
2007,08,22,10,50,18.50
2007,08,22,10,51,18.50
2007,08,22,10,52,18.50
2007,08,22,10,53,18.60
2007,08,22,10,54,18.60
2007,08,22,10,55,18.60
2007,08,22,10,56,18.60
2007,08,22,10,57,18.60
2007,08,22,10,58,18.60
2007,08,22,10,59,18.60
2007,08,22,11,00,18.60
2007,08,22,11,01,18.60
2007,08,22,11,02,18.60
2007,08,22,11,03,18.60
2007,08,22,11,04,18.50
2007,08,22,11,05,18.50
2007,08,22,11,06,18.50
2007,08,22,11,07,18.60
2007,08,22,11,08,18.60
2007,08,22,11,09,18.70
2007,08,22,11,10,18.90
2007,08,22,11,11,18.90
2007,08,22,11,12,19.10
2007,08,22,11,13,19.10
2007,08,22,11,14,19.10
2007,08,22,11,15,19.10
2007,08,22,11,16,19.30
2007,08,22,11,17,19.40
2007,08,22,11,18,19.50
2007,08,22,11,19,19.50
2007,08,22,11,20,19.60
2007,08,22,11,21,19.70
2007,08,22,11,22,19.80
2007,08,22,11,23,19.90
2007,08,22,11,24,19.90
2007,08,22,11,25,19.90
2007,08,22,11,26,20.00
2007,08,22,11,27,20.10
2007,08,22,11,28,20.20
2007,08,22,11,29,20.30
2007,08,22,11,30,20.30
2007,08,22,11,31,20.30
2007,08,22,11,32,20.30
2007,08,22,11,33,20.30
2007,08,22,11,34,20.30
2007,08,22,11,35,20.30
2007,08,22,11,36,20.30
2007,08,22,11,37,20.30
2007,08,22,11,38,20.30
2007,08,22,11,39,20.30
2007,08,22,11,40,20.30
2007,08,22,11,41,20.30
2007,08,22,11,42,20.40
2007,08,22,11,43,20.50
2007,08,22,11,44,20.50
2007,08,22,11,45,20.50
2007,08,22,11,46,20.60
2007,08,22,11,47,20.60
2007,08,22,11,48,20.60
2007,08,22,11,49,20.60
2007,08,22,11,50,20.70
2007,08,22,11,51,20.80
2007,08,22,11,52,20.90
2007,08,22,11,53,20.90
2007,08,22,11,54,20.90
2007,08,22,11,55,20.80
2007,08,22,11,56,20.80
2007,08,22,11,57,20.80
2007,08,22,11,58,20.80
2007,08,22,11,59,20.80
2007,08,22,12,00,20.80
2007,08,22,12,01,20.70
2007,08,22,12,02,20.60
2007,08,22,12,03,20.50
2007,08,22,12,04,20.50
2007,08,22,12,05,20.50
2007,08,22,12,06,20.40
2007,08,22,12,07,20.40
2007,08,22,12,08,20.50
2007,08,22,12,09,20.50
2007,08,22,12,10,20.60
2007,08,22,12,11,20.60
2007,08,22,12,12,20.60
2007,08,22,12,13,20.50
2007,08,22,12,14,20.40
2007,08,22,12,15,20.40
2007,08,22,12,16,20.50
2007,08,22,12,17,20.50
2007,08,22,12,18,20.60
2007,08,22,12,19,20.60
2007,08,22,12,20,20.70
2007,08,22,12,21,20.70
2007,08,22,12,22,20.70
2007,08,22,12,23,20.70
2007,08,22,12,24,20.60
2007,08,22,12,25,20.60
2007,08,22,12,26,20.60
2007,08,22,12,27,20.60
2007,08,22,12,28,20.50
2007,08,22,12,29,20.50
2007,08,22,12,30,20.50
2007,08,22,12,31,20.50
2007,08,22,12,32,20.60
2007,08,22,12,33,20.70
2007,08,22,12,34,20.80
2007,08,22,12,35,20.90
2007,08,22,12,36,20.90
2007,08,22,12,37,21.00
2007,08,22,12,38,21.10
2007,08,22,12,39,21.20
2007,08,22,12,40,21.30
2007,08,22,12,41,21.30
2007,08,22,12,42,21.30
2007,08,22,12,43,21.30
2007,08,22,12,44,21.40
2007,08,22,12,45,21.40
2007,08,22,12,46,21.30
2007,08,22,12,47,21.30
2007,08,22,12,48,21.30
2007,08,22,12,49,21.40
2007,08,22,12,50,21.40
2007,08,22,12,51,21.50
2007,08,22,12,52,21.60
2007,08,22,12,53,21.60
2007,08,22,12,54,21.70
2007,08,22,12,55,21.70
2007,08,22,12,56,21.70
2007,08,22,12,57,21.70
2007,08,22,12,58,21.80
2007,08,22,12,59,21.90
2007,08,22,13,00,21.90
2007,08,22,13,01,22.00
2007,08,22,13,02,21.90
2007,08,22,13,03,21.90
2007,08,22,13,04,22.00
2007,08,22,13,05,22.00
2007,08,22,13,06,22.10
2007,08,22,13,07,22.10
2007,08,22,13,08,22.10
2007,08,22,13,09,22.10
2007,08,22,13,10,22.10
2007,08,22,13,11,22.10
2007,08,22,13,12,22.10
2007,08,22,13,13,22.10
2007,08,22,13,14,22.10
2007,08,22,13,15,22.00
2007,08,22,13,16,21.90
2007,08,22,13,17,21.70
2007,08,22,13,18,21.60
2007,08,22,13,19,21.50
2007,08,22,13,20,21.40
2007,08,22,13,21,21.50
2007,08,22,13,22,21.60
2007,08,22,13,23,21.60
2007,08,22,13,24,21.60
2007,08,22,13,25,21.60
2007,08,22,13,26,21.50
2007,08,22,13,27,21.30
2007,08,22,13,28,21.30
2007,08,22,13,29,21.30
2007,08,22,13,30,21.30
2007,08,22,13,31,21.30
2007,08,22,13,32,21.20
2007,08,22,13,33,21.20
2007,08,22,13,34,21.20
2007,08,22,13,35,21.20
2007,08,22,13,36,21.20
2007,08,22,13,37,21.20
2007,08,22,13,38,21.20
2007,08,22,13,39,21.20
2007,08,22,13,40,21.20
2007,08,22,13,41,21.30
2007,08,22,13,42,21.30
2007,08,22,13,43,21.30
2007,08,22,13,44,21.40
2007,08,22,13,45,21.40
2007,08,22,13,46,21.40
2007,08,22,13,47,21.40
2007,08,22,13,48,21.30
2007,08,22,13,49,21.30
2007,08,22,13,50,21.30
2007,08,22,13,51,21.30
2007,08,22,13,52,21.50
2007,08,22,13,53,21.60
2007,08,22,13,54,21.60
2007,08,22,13,55,21.60
2007,08,22,13,56,21.50
2007,08,22,13,57,21.40
2007,08,22,13,58,21.30
2007,08,22,13,59,21.30
2007,08,22,14,00,21.20
2007,08,22,14,01,21.20
2007,08,22,14,02,21.30
2007,08,22,14,03,21.30
2007,08,22,14,04,21.30
2007,08,22,14,05,21.30
2007,08,22,14,06,21.30
2007,08,22,14,07,21.30
2007,08,22,14,08,21.30
2007,08,22,14,09,21.30
2007,08,22,14,10,21.20
2007,08,22,14,11,21.20
2007,08,22,14,12,21.20
2007,08,22,14,13,21.20
2007,08,22,14,14,21.20
2007,08,22,14,15,21.20
2007,08,22,14,16,21.30
2007,08,22,14,17,21.30
2007,08,22,14,18,21.30
2007,08,22,14,19,21.30
2007,08,22,14,20,21.40
2007,08,22,14,21,21.60
2007,08,22,14,22,21.60
2007,08,22,14,23,21.60
2007,08,22,14,24,21.60
2007,08,22,14,25,21.80
2007,08,22,14,26,21.90
2007,08,22,14,27,22.00
2007,08,22,14,28,22.10
2007,08,22,14,29,22.10
2007,08,22,14,30,22.10
2007,08,22,14,31,22.10
2007,08,22,14,32,22.10
2007,08,22,14,33,22.10
2007,08,22,14,34,22.10
2007,08,22,14,35,22.00
2007,08,22,14,36,21.80
2007,08,22,14,37,21.60
2007,08,22,14,38,21.40
2007,08,22,14,39,21.20
2007,08,22,14,40,21.10
2007,08,22,14,41,21.10
2007,08,22,14,42,20.90
2007,08,22,14,43,20.80
2007,08,22,14,44,20.80
2007,08,22,14,45,21.00
2007,08,22,14,46,21.00
2007,08,22,14,47,20.90
2007,08,22,14,48,21.00
2007,08,22,14,49,21.00
2007,08,22,14,50,20.90
2007,08,22,14,51,21.00
2007,08,22,14,52,21.00
2007,08,22,14,53,21.00
2007,08,22,14,54,21.00
2007,08,22,14,55,21.10
2007,08,22,14,56,21.20
2007,08,22,14,57,21.30
2007,08,22,14,58,21.30
2007,08,22,14,59,21.30
2007,08,22,15,00,21.30
2007,08,22,15,01,21.20
2007,08,22,15,02,21.30
2007,08,22,15,03,21.30
2007,08,22,15,04,21.30
2007,08,22,15,05,21.30
2007,08,22,15,06,21.30
2007,08,22,15,07,21.40
2007,08,22,15,08,21.30
2007,08,22,15,09,21.30
2007,08,22,15,10,21.30
2007,08,22,15,11,21.30
2007,08,22,15,12,21.40
2007,08,22,15,13,21.50
2007,08,22,15,14,21.60
2007,08,22,15,15,21.50
2007,08,22,15,16,21.40
2007,08,22,15,17,21.30
2007,08,22,15,18,21.30
2007,08,22,15,19,21.30
2007,08,22,15,20,21.40
2007,08,22,15,21,21.30
2007,08,22,15,22,21.30
2007,08,22,15,23,21.20
2007,08,22,15,24,21.20
2007,08,22,15,25,21.30
2007,08,22,15,26,21.30
2007,08,22,15,27,21.30
2007,08,22,15,28,21.30
2007,08,22,15,29,21.30
2007,08,22,15,30,21.10
2007,08,22,15,31,21.10
2007,08,22,15,32,21.20
2007,08,22,15,33,21.10
2007,08,22,15,34,21.20
2007,08,22,15,35,21.10
2007,08,22,15,36,21.10
2007,08,22,15,37,21.00
2007,08,22,15,38,21.00
2007,08,22,15,39,20.90
2007,08,22,15,40,20.90
2007,08,22,15,41,21.00
2007,08,22,15,42,21.00
2007,08,22,15,43,21.10
2007,08,22,15,44,21.20
2007,08,22,15,45,21.20
2007,08,22,15,46,21.20
2007,08,22,15,47,21.20
2007,08,22,15,48,21.30
2007,08,22,15,49,21.30
2007,08,22,15,50,21.30
2007,08,22,15,51,21.20
2007,08,22,15,52,21.10
2007,08,22,15,53,21.10
2007,08,22,15,54,21.00
2007,08,22,15,55,20.90
2007,08,22,15,56,20.90
2007,08,22,15,57,21.00
2007,08,22,15,58,21.00
2007,08,22,15,59,21.00
2007,08,22,16,00,21.00
2007,08,22,16,01,21.00
2007,08,22,16,02,20.90
2007,08,22,16,03,20.90
2007,08,22,16,04,20.80
2007,08,22,16,05,20.80
2007,08,22,16,06,20.70
2007,08,22,16,07,20.60
2007,08,22,16,08,20.60
2007,08,22,16,09,20.70
2007,08,22,16,10,20.70
2007,08,22,16,11,20.70
2007,08,22,16,12,20.70
2007,08,22,16,13,20.60
2007,08,22,16,14,20.50
2007,08,22,16,15,20.60
2007,08,22,16,16,20.60
2007,08,22,16,17,20.70
2007,08,22,16,18,20.80
2007,08,22,16,19,20.70
2007,08,22,16,20,20.70
2007,08,22,16,21,20.70
2007,08,22,16,22,20.60
2007,08,22,16,23,20.60
2007,08,22,16,24,20.50
2007,08,22,16,25,20.50
2007,08,22,16,26,20.60
2007,08,22,16,27,20.60
2007,08,22,16,28,20.60
2007,08,22,16,29,20.60
2007,08,22,16,30,20.60
2007,08,22,16,31,20.70
2007,08,22,16,32,20.70
2007,08,22,16,33,20.80
2007,08,22,16,34,20.90
2007,08,22,16,35,20.90
2007,08,22,16,36,21.00
2007,08,22,16,37,21.10
2007,08,22,16,38,21.00
2007,08,22,16,39,21.00
2007,08,22,16,40,20.90
2007,08,22,16,41,20.90
2007,08,22,16,42,21.00
2007,08,22,16,43,21.00
2007,08,22,16,44,21.00
2007,08,22,16,45,20.90
2007,08,22,16,46,20.80
2007,08,22,16,47,20.80
2007,08,22,16,48,20.70
2007,08,22,16,49,20.70
2007,08,22,16,50,20.70
2007,08,22,16,51,20.80
2007,08,22,16,52,20.80
2007,08,22,16,53,20.90
2007,08,22,16,54,20.90
2007,08,22,16,55,20.80
2007,08,22,16,56,20.80
2007,08,22,16,57,20.70
2007,08,22,16,58,20.70
2007,08,22,16,59,20.70
2007,08,22,17,00,20.60
2007,08,22,17,01,20.60
2007,08,22,17,02,20.60
2007,08,22,17,03,20.60
2007,08,22,17,04,20.50
2007,08,22,17,05,20.50
2007,08,22,17,06,20.50
2007,08,22,17,07,20.40
2007,08,22,17,08,20.50
2007,08,22,17,09,20.50
2007,08,22,17,10,20.50
2007,08,22,17,11,20.50
2007,08,22,17,12,20.50
2007,08,22,17,13,20.50
2007,08,22,17,14,20.50
2007,08,22,17,15,20.50
2007,08,22,17,16,20.60
2007,08,22,17,17,20.60
2007,08,22,17,18,20.60
2007,08,22,17,19,20.60